Location: Newark
(49.8753°N, 23.0797°E)
Time: 00:44:13
(UTC+00:00)

ISS - Pass Details

Date: 01 July 2021
Orbit: 419 x 421 km, 51.6° (Epoch: 02 August)

Event Time Altitude Azimuth Distance (km) Brightness Sun altitude
Exits shadow 00:46:21 14° 178° (S) 1,289 -1.8 -11.1°
Maximum altitude 00:48:05 19° 141° (SE) 1,058 -1.9 -11.0°
Drops below altitude 10° 00:50:34 10° 93° (E) 1,502 -0.5 -10.8°
Sets 00:53:03 0° 76° (ENE) 2,370 0.9 -10.6°
